Tracking 35274 objects as of 11-Sep-2026
HD Live streaming from Space Station
objects crossing your sky now

STARLINK-3877

Track STARLINK-3877 now!
10-day predictions
STARLINK-3877 is classified as:


NORAD ID: 52355
Int'l Code: 2022-045AA
Launch date: April 29, 2022
Source: United States (US)
Launch site: AIR FORCE EASTERN TEST RANGE (AFETR)
Your satellite tracking list
Your tracking list is empty




NASA's NSSDC Master Catalog

Two Line Element Set (TLE):
1 52355U 22045AA  26253.95717516  .00000251  00000-0  18568-4 0  9992
2 52355  53.1604  80.4537 0001107  96.8530 263.2599 15.34391005243846
Source of the keplerian elements: AFSPC